ZHUHAI-1 OHS-02 (43441 NORAD) Tracking and Keplerian Element Data

This shows tracking and keplerian element data for the satellite.

Feedback or suggestion? Click here.




ElementValue
Catalog43441
NameZHUHAI-1 OHS-02
Epoch Orbit37694
Epoch Day35.17846224
Epoch Year2025
RAAN81.206
Inclination97.0995
Eccentricity0.0011534
Argument of Perigee206.5574
Mean Anonmoly153.5076
Mean Motion15.26680066
Decay Rate0.00015687
L11 43441U 18040C 25035.17846224 .00015687 00000+0 59860-3 0 9995
L22 43441 97.0995 81.2060 0011534 206.5574 153.5076 15.26680066376943



Live tracking and technical data element details for ZHUHAI-1 OHS-02 (NORAD 43441). ZHUHAI-1 OHS-02 can be tracked NOW for your location showing map with azimuth and elevation plus other details from your city location.







IsCatalogInMostPopularTable: catalog: 43441, numindb: 359
Update: records affected: 1



GetName: 43441 ZHUHAI-1 OHS-02

Hit Count: updated at: Sat, 17 May 2025 09:35:52 GMT